Location: Cruquius
(52.3348°N, 4.6319°E)
Time: 12:49:49
(UTC+00:00)

Daily predictions for brighter satellites

Satellite Brightness Start Highest point End
(mag) Time Altitude Azimuth Time Altitude Azimuth Time Altitude Azimuth
BREEZE-M DEB (TANK) 4.3 19:50:51 10° WSW 20:06:09 64° SSE 20:09:56 10° E
CZ-2C R/B 4.3 20:05:43 10° NNE 20:09:53 37° E 20:14:06 10° SSE
S3M 4.2 20:04:34 10° SSW 20:10:58 81° WNW 20:17:18 10° N
Cosmos 2278 Rocket 3.0 20:06:39 10° SSE 20:11:33 31° ESE 20:16:27 10° NE
Cosmos 1602 3.9 20:07:50 10° NNW 20:11:43 78° W 20:15:36 10° S
Cosmos 1933 3.5 20:08:15 10° SSW 20:12:17 80° W 20:16:20 10° N
CREW DRAGON DEMO-1 DEB 3.1 20:10:19 10° W 20:12:50 40° SSW 20:15:21 10° SE
Cosmos 1844 Rocket 3.3 20:07:30 10° SW 20:13:02 64° NW 20:18:37 10° NNE
Akebono 3.8 20:12:59 10° NNW 20:15:27 87° WSW 20:17:32 10° SSE
Cosmos 2084 3.7 20:11:36 10° SSW 20:15:33 45° SE 20:19:38 10° NE
Cosmos 1777 Rocket 4.4 20:10:51 10° S 20:15:42 41° ESE 20:20:34 10° NE
Cosmos 1503 Rocket 4.0 20:10:33 10° SSW 20:15:44 89° ESE 20:21:01 10° NNE
Cosmos 1151 Rocket 3.1 20:11:41 10° S 20:16:00 65° E 20:20:23 10° NNE
Cosmos 2315 Rocket 4.1 20:12:33 10° S 20:18:52 69° E 20:25:14 10° NNE
Ariane Rocket 4.1 20:17:07 10° S 20:21:56 44° W 20:26:49 10° NNW
Cosmos 1782 2.8 20:18:30 10° S 20:22:29 75° E 20:26:29 10° NNE
ATLAS 5 CENTAUR R/B 3.6 20:20:50 10° WNW 20:25:50 34° WSW 20:31:35 10° S
SOZ 4.3 20:23:50 10° WSW 20:26:23 53° SSE 20:28:39 10° E
Gbstr 26 Del rocket 4.4 20:19:12 10° W 20:27:10 87° S 20:33:59 10° E
USA 305 3.2 20:24:13 10° WNW 20:28:25 58° SSW 20:32:22 11° SE
Resurs 01 Rocket 2.2 20:27:21 10° S 20:31:43 56° W 20:36:07 10° NNW
Cosmos 2228 Rocket 4.4 20:29:53 11° SE 20:33:12 23° E 20:36:44 10° NE
NOSS 3-4 (A) 3.9 20:26:34 10° NW 20:33:23 84° NE 20:40:44 11° SE
NOSS 3-4 (C) 3.9 20:26:41 10° NW 20:33:30 84° NE 20:40:50 11° SE
OBJECT-B 3.8 20:34:34 10° WSW 20:36:07 13° W 20:37:39 10° WNW
IGS 5A 4.1 20:32:32 10° S 20:36:37 55° W 20:40:43 10° NNW
Cosmos 1812 3.0 20:33:11 10° S 20:36:55 50° E 20:40:41 10° NNE
Meteor 1-11 Rocket 4.3 20:31:54 10° N 20:37:43 49° ENE 20:42:58 12° SE
Cosmos 1666 2.8 20:36:18 10° N 20:40:00 60° ENE 20:43:16 13° SSE
Terra 2.6 20:37:19 12° SE 20:41:23 39° ENE 20:45:48 10° N
Cosmos 44 4.1 20:39:15 10° NW 20:44:36 51° NE 20:49:39 11° ESE
NOSS 3-3 (A) 3.9 20:39:05 10° SW 20:44:56 76° SE 20:51:43 10° NE
NOSS 3-3 (C) 3.9 20:39:12 10° SW 20:45:03 76° SE 20:51:49 10° NE
Cosmos 1833 Rocket 3.0 20:39:54 10° NW 20:45:32 66° WSW 20:50:56 11° SSE
Cosmos 1340 Rocket 4.3 20:43:03 10° N 20:46:27 24° ENE 20:49:18 13° ESE
ATLAS 2AS CENTAUR R/B 3.1 20:39:21 10° NW 20:46:55 70° NE 20:53:31 12° ESE
USA 306 3.4 20:43:39 10° WNW 20:47:45 47° SSW 20:51:02 15° SE
ERBS 3.3 20:47:34 10° WNW 20:50:45 43° NNE 20:53:56 10° E
Cosmos 1515 Rocket 3.5 20:46:45 10° S 20:51:09 69° E 20:55:30 10° NNE
Meteor 1-5 Rocket 4.2 20:46:30 10° NNW 20:51:56 83° W 20:57:12 10° S
SPOT 5 3.2 20:47:38 13° SSE 20:52:12 65° ENE 20:57:30 10° N
Cosmos 1869 Rocket 4.1 20:49:00 10° N 20:53:10 43° ENE 20:56:20 16° SE
Iridium 4 Rocket 4.0 20:47:32 10° SSE 20:53:14 61° E 20:59:04 10° N
Cosmos 1633 Rocket 4.4 20:50:14 10° NNW 20:54:18 37° W 20:58:22 10° SSW
USA 215 3.9 20:48:08 10° ENE 20:54:33 60° N 21:00:57 10° WNW
SPOT 1/Viking Rocket 3.9 20:52:41 10° S 20:57:51 64° WSW 21:03:01 10° NNW
Cosmos 1743 4.2 20:54:51 10° NNE 20:58:02 24° ENE 21:00:22 14° ESE
Cosmos 158 Rocket 3.8 20:55:14 10° NNW 21:00:08 89° ENE 21:04:06 16° SSE
Cosmos 1536 3.3 20:59:35 10° N 21:03:31 46° ENE 21:06:10 19° SE
Meteor 1-10 Rocket 4.3 20:59:53 10° S 21:05:24 64° E 21:11:02 10° NNE
Cosmos 1328 Rocket 4.4 21:02:47 10° SSW 21:07:07 52° WNW 21:11:27 10° N
Cosmos 2112 Rocket 4.4 21:03:36 10° NNW 21:08:54 57° ENE 21:12:54 17° SE
Cosmos 1544 3.9 21:05:39 10° N 21:09:01 36° ENE 21:11:01 20° SE
CZ-4C R/B 3.7 21:02:32 10° NW 21:09:20 46° WSW 21:16:26 13° S
USA 307 3.8 21:10:48 10° WNW 21:14:42 35° SW 21:17:05 20° SSE
JB-3 4.2 21:12:35 10° NNE 21:16:31 83° ESE 21:20:00 12° SSW
CARTOSAT-1 4.0 21:13:16 14° S 21:16:58 60° W 21:21:15 10° NNW
Meteor 2-12 Rocket 4.4 21:11:12 10° N 21:17:19 83° E 21:22:11 17° SSE
ARIANE 5 R/B 3.2 21:15:27 13° S 21:19:13 53° W 21:23:29 10° NNW
CZ-4B DEB 4.2 21:18:58 25° SSE 21:20:42 73° ENE 21:23:55 10° N
Cosmos 1933 Rocket 4.3 21:17:40 10° NNW 21:21:52 48° W 21:25:43 12° SSW
H-2A R/B 3.8 21:18:37 10° NNE 21:22:41 46° E 21:25:07 21° SSE
Cosmos 2082 Rocket 2.5 21:22:07 10° NW 21:27:39 60° WSW 21:31:43 18° S
USA 308 4.0 21:24:32 10° W 21:28:18 30° SW 21:30:15 21° S
Spot 2 Rocket 4.3 21:24:51 11° S 21:29:28 45° W 21:34:20 10° NNW
Cosmos 2154 Rocket 4.0 21:25:39 10° N 21:32:02 89° W 21:36:54 18° S
Cosmos 1937 Rocket 4.4 21:31:11 21° SE 21:33:24 29° E 21:37:51 10° NE
ERS-1 Rocket 3.4 21:30:08 16° S 21:34:06 60° WSW 21:39:06 10° NNW
Cosmos 1680 Rocket 3.5 21:30:26 10° NNW 21:35:48 85° WSW 21:39:16 22° SSE
SJ 16-02 1.6 21:34:16 10° SSW 21:38:42 70° WNW 21:43:09 10° NNE
BREEZE-M DEB (TANK) 2.5 21:37:12 10° WSW 21:38:36 25° SW 21:38:36 25° SW
Cosmos 2184 Rocket 4.4 21:33:06 10° NNW 21:39:11 58° W 21:44:36 13° S
Cosmos 1733 Rocket 3.6 21:37:48 10° N 21:41:59 46° ENE 21:44:08 25° SE
SL-24 R/B - RUBIN 2 4.0 21:36:24 10° NW 21:42:03 78° SW 21:45:04 25° SSE
Cosmos 962 Rocket 4.5 21:38:02 10° N 21:44:10 71° ENE 21:48:11 23° SSE
Cosmos 1271 Rocket 3.3 21:40:32 11° SSW 21:44:20 58° WNW 21:48:18 10° N
SL-24 DEB 4.2 21:42:27 21° S 21:45:29 82° W 21:50:08 10° N
Cosmos 1515 4.5 21:47:27 28° SE 21:48:35 35° E 21:52:04 10° NNE
Nadezhda 1 Rocket 4.0 21:44:00 14° S 21:49:31 89° W 21:55:46 10° N
Cosmos 2278 Rocket 2.8 21:49:47 10° SW 21:55:21 58° NW 22:00:58 10° NNE
Cosmos 1943 Rocket 2.7 21:54:26 25° SSE 21:57:03 39° ESE 22:02:14 10° NE
Meteor 1-27 Rocket 3.9 21:52:03 15° SSW 21:57:05 84° WNW 22:03:04 10° NNE
Cosmos 1818 3.6 21:54:13 10° NW 21:59:44 84° SW 22:02:55 26° SE
Cosmos 2369 Rocket 3.3 22:01:38 22° SE 22:03:15 25° ESE 22:07:48 10° NE
Cosmos 2084 Rocket 3.5 22:00:42 10° NW 22:04:55 68° SW 22:06:47 33° SSE
Cosmos 2228 Rocket 4.0 22:07:20 13° SW 22:11:07 47° WNW 22:15:29 10° N
BREEZE-M R/B 2.6 22:08:47 10° W 22:10:38 39° SW 22:10:38 39° SW
Meteor 2-9 Rocket 4.3 22:05:42 10° N 22:11:31 72° ENE 22:14:38 28° SSE
Cosmos 1898 Rocket 3.5 22:10:32 20° SSW 22:14:12 79° ESE 22:19:35 10° NNE
Gbstr 26 Del rocket 4.2 22:07:03 10° WNW 22:14:28 63° SSW 22:18:36 23° SE
SL-27 R/B 4.4 22:12:11 10° N 22:14:42 20° NE 22:16:15 15° E
Meteor 1-19 Rocket 4.4 22:12:13 28° SSE 22:14:46 51° E 22:20:01 10° NNE
Cosmos 2181 Rocket 4.1 22:11:56 26° SSE 22:15:20 59° E 22:21:21 10° NNE
Cosmos 967 Rocket 4.5 22:11:12 18° SSW 22:15:55 59° ESE 22:22:06 10° NE
Cosmos 2366 rocket 4.0 22:11:45 10° N 22:17:57 73° ENE 22:21:27 27° SSE
Cosmos 1900 4.4 22:14:49 22° SSW 22:18:01 62° SE 22:23:00 10° NE
Terra 3.1 22:16:11 17° SSW 22:19:12 34° W 22:23:32 10° NNW
Cosmos 1340 Rocket 3.8 22:19:12 10° NNW 22:23:02 40° W 22:24:53 25° SSW
Cosmos 990 Rocket 4.1 22:19:50 15° SSW 22:24:15 75° WNW 22:29:33 10° NNE
Okean 1 3.2 22:23:54 39° S 22:25:17 76° E 22:29:18 10° NNE
Cosmos 44 4.2 22:20:45 10° NW 22:25:52 42° WSW 22:28:04 28° S
ERBS 2.3 22:23:42 10° WNW 22:26:58 57° SW 22:27:12 55° SSW
Cosmos 372 Rocket 4.3 22:25:47 32° SSE 22:27:36 45° ESE 22:32:28 10° NE
Cosmos 2341 Rocket 4.2 22:22:32 10° NNW 22:28:55 68° W 22:32:47 25° S
Cosmos 1862 Rocket 3.5 22:27:33 37° S 22:29:10 72° E 22:33:30 10° NNE
Cosmos 489 Rocket 4.5 22:26:33 10° NNW 22:32:48 76° WSW 22:36:08 29° SSE
Cosmos 1743 3.8 22:30:20 10° NNW 22:33:54 36° W 22:35:25 25° SW
USA 215 3.4 22:30:46 10° ESE 22:37:19 76° NNE 22:43:50 10° WNW
ATLAS 2AS CENTAUR R/B 3.5 22:30:49 10° NW 22:37:32 40° WSW 22:40:56 25° SSW
Meteor 2-4 Rocket 4.1 22:35:54 30° SSE 22:38:23 49° E 22:43:45 10° NNE
Cosmos 2218 Rocket 4.0 22:35:32 10° NNW 22:41:50 79° W 22:45:17 29° S
Spot 4 3.9 22:42:00 35° S 22:44:05 77° WSW 22:48:58 10° NNW
Okean 1-7 3.8 22:43:30 32° SE 22:44:32 37° E 22:48:30 10° NNE
Cosmos 1833 4.3 22:47:48 10° NNW 22:53:36 77° ENE 22:56:44 28° SE
Cosmos 2297 3.9 22:50:42 15° SW 22:55:27 70° NW 23:01:08 10° NNE
Cosmos 1975 3.0 22:51:34 10° NNW 22:55:31 61° W 22:56:35 42° SSW
Cosmos 1867 4.2 22:54:36 33° SSE 22:55:53 37° ESE 23:00:54 10° NE
DNEPR-1 R/B 3.9 22:54:02 17° SW 22:58:30 87° SE 23:03:19 10° NE
RESURS DK-1 2.3 22:56:00 10° NNW 23:00:13 88° NE 23:01:28 45° SE
COSMOS 2455 4.4 22:54:51 10° NNW 23:00:17 33° NNE 23:05:42 10° E
Lacrosse 5 4.1 23:03:14 10° ESE 23:03:14 10° ESE 23:03:18 10° ESE
ALOS 2 2.5 23:01:54 43° S 23:03:20 84° WSW 23:07:46 10° NNW
Nadezhda 3 Rocket 4.4 23:01:03 30° SSE 23:03:58 52° E 23:09:58 10° NNE
NOSS 2-1 (C) 4.4 23:02:47 10° NW 23:07:10 61° NE 23:12:36 13° ESE
SAR-Lupe-2 3.8 23:03:44 10° NNE 23:07:16 53° E 23:07:39 50° SE
Meteor 1-12 Rocket 4.4 23:03:53 10° N 23:09:47 70° ENE 23:12:37 31° SSE
Cosmos 1378 3.8 23:13:26 38° ESE 23:13:54 40° E 23:17:24 10° NNE
Cosmos 1461 3.0 23:11:46 31° SW 23:13:59 86° SE 23:18:37 10° NE
NOSS 2-1 (D) 4.2 23:09:35 10° NW 23:14:00 66° NE 23:19:12 14° ESE
Meteor 1-18 Rocket 4.4 23:10:52 27° SSW 23:14:00 65° WNW 23:19:35 10° N
Cosmos 1937 Rocket 4.2 23:11:18 17° SW 23:15:08 51° WNW 23:20:12 10° NNE
SJ 16-02 4.2 23:15:44 10° WNW 23:18:09 14° NW 23:20:34 10° N
COBE Rocket 4.0 23:16:37 38° S 23:18:38 81° WSW 23:23:51 10° NNW
COSMOS 2487 4.1 23:17:51 10° N 23:20:52 28° ENE 23:22:11 21° E
Sich 1 Rocket 4.0 23:19:50 10° N 23:24:21 56° ENE 23:26:01 35° SE
Cosmos 1048 Rocket 4.2 23:22:02 10° NNW 23:27:18 61° WSW 23:29:11 38° S
Cosmos 2344 4.2 23:18:44 10° NW 23:27:39 84° SW 23:39:42 11° SE
Cosmos 2242 Rocket 3.7 23:31:02 40° SSW 23:32:32 71° WNW 23:37:02 10° N
Cosmos 2239 Rocket 4.5 23:28:35 10° N 23:34:56 85° W 23:38:02 33° S
Cosmos 1300 Rocket 3.8 23:31:26 10° N 23:35:50 62° ENE 23:37:19 38° SE
Cosmos 1269 Rocket 4.4 23:31:41 10° NNW 23:36:57 60° ENE 23:40:01 25° SE
Nimbus 7 Rocket 4.3 23:33:34 10° NNE 23:39:30 84° ESE 23:42:19 33° SSW
Thor Agena Rocket 3.6 23:34:42 10° NNE 23:39:57 70° ESE 23:42:03 37° S
ATLAS CENTAUR R/B 1.4 23:40:13 46° SE 23:40:13 46° SE 23:43:54 10° NE
Cosmos 1943 Rocket 3.0 23:35:54 13° WSW 23:40:45 47° NW 23:46:10 10° NNE
Okean 2 Rocket 3.4 23:38:17 10° N 23:42:39 58° ENE 23:44:14 36° SE
Cosmos 2151 Rocket 4.3 23:39:14 10° N 23:43:39 49° ENE 23:45:33 29° SE
Cosmos 2298 Rocket 4.0 23:42:47 35° SSW 23:45:04 89° ESE 23:50:25 10° NNE
BREEZE-M DEB (TANK) 4.4 23:33:53 10° WNW 23:45:43 39° SW 23:47:07 34° SSW
Cosmos 1733 3.4 23:43:00 10° N 23:46:47 62° ENE 23:47:40 46° SE
Cosmos 2369 Rocket 2.4 23:43:23 24° SW 23:46:48 68° NW 23:52:29 10° NNE
Meteor 1-15 Rocket 4.2 23:42:11 10° NNW 23:47:53 84° ENE 23:50:39 33° SSE
SL-27 R/B 3.1 23:46:47 10° NW 23:49:44 38° W 23:49:44 38° W
EO 1 Del DPAF 3.7 23:49:50 10° NNE 23:53:27 45° E 23:54:03 41° SE
